Time,TemperatureF,DewpointF,PressureIn,WindDirection,WindDirectionDegrees,WindSpeedMPH,WindSpeedGustMPH,Humidity,HourlyPrecipIn,Conditions,Clouds,dailyrainin,SoftwareType,DateUTC
2013-06-27 00:01:00,61.0,0.0,29.82,ENE,68,0.2,1.6,0,0.00,,,0.00,WUHU216HW,2013-06-27 04:01:00,
2013-06-27 00:06:00,61.0,0.0,29.82,NNW,338,0.2,1.6,0,0.00,,,0.00,WUHU216HW,2013-06-27 04:06:00,
2013-06-27 00:11:00,61.0,0.0,29.83,ENE,68,3.1,3.1,0,0.00,,,0.00,WUHU216HW,2013-06-27 04:11:00,
2013-06-27 00:16:00,61.0,0.0,29.83,ENE,68,0.7,3.1,0,0.00,,,0.00,WUHU216HW,2013-06-27 04:16:00,
2013-06-27 00:21:00,61.0,0.0,29.83,South,180,0.2,3.1,0,0.00,,,0.00,WUHU216HW,2013-06-27 04:21:00,
2013-06-27 00:26:00,61.0,0.0,29.83,NNE,23,0.2,0.7,0,0.00,,,0.00,WUHU216HW,2013-06-27 04:26:00,
2013-06-27 00:31:00,60.8,0.0,29.83,NW,315,0.0,1.1,0,0.00,,,0.00,WUHU216HW,2013-06-27 04:31:00,
2013-06-27 00:36:00,60.8,0.0,29.83,North,0,1.1,1.1,0,0.00,,,0.00,WUHU216HW,2013-06-27 04:36:00,
2013-06-27 00:41:00,60.8,0.0,29.83,NNE,23,0.0,2.0,0,0.00,,,0.00,WUHU216HW,2013-06-27 04:41:00,
2013-06-27 00:46:00,60.8,0.0,29.83,ENE,68,2.5,2.5,0,0.00,,,0.00,WUHU216HW,2013-06-27 04:46:00,
2013-06-27 00:51:00,60.8,0.0,29.83,ENE,68,1.8,4.0,0,0.00,,,0.00,WUHU216HW,2013-06-27 04:51:00,
2013-06-27 00:56:00,60.8,0.0,29.83,SSE,158,0.4,4.0,0,0.00,,,0.00,WUHU216HW,2013-06-27 04:56:00,
2013-06-27 01:01:00,60.8,0.0,29.83,SE,135,0.9,1.8,0,0.00,,,0.00,WUHU216HW,2013-06-27 05:01:00,
2013-06-27 01:06:00,60.8,0.0,29.83,ESE,113,1.1,1.8,0,0.00,,,0.00,WUHU216HW,2013-06-27 05:06:00,
2013-06-27 01:11:00,60.8,0.0,29.83,ESE,113,0.4,1.6,0,0.00,,,0.00,WUHU216HW,2013-06-27 05:11:00,
2013-06-27 01:16:00,60.8,0.0,29.83,ESE,113,1.1,2.2,0,0.00,,,0.00,WUHU216HW,2013-06-27 05:16:00,
2013-06-27 01:21:00,60.8,0.0,29.83,NE,45,1.8,2.2,0,0.00,,,0.00,WUHU216HW,2013-06-27 05:21:00,
2013-06-27 01:26:00,60.8,0.0,29.83,SE,135,0.4,1.8,0,0.00,,,0.00,WUHU216HW,2013-06-27 05:26:00,
2013-06-27 01:31:00,60.8,0.0,29.84,SE,135,0.9,1.8,0,0.00,,,0.00,WUHU216HW,2013-06-27 05:31:00,
2013-06-27 01:36:00,60.8,0.0,29.84,East,90,1.1,1.8,0,0.00,,,0.00,WUHU216HW,2013-06-27 05:36:00,
2013-06-27 01:41:00,60.8,0.0,29.84,ESE,113,0.4,1.8,0,0.00,,,0.00,WUHU216HW,2013-06-27 05:41:00,
2013-06-27 01:46:00,60.8,0.0,29.84,NNE,23,0.4,1.8,0,0.00,,,0.00,WUHU216HW,2013-06-27 05:46:00,
2013-06-27 01:51:00,60.8,0.0,29.84,NNE,23,2.0,2.0,0,0.00,,,0.00,WUHU216HW,2013-06-27 05:51:00,
2013-06-27 01:56:00,60.8,0.0,29.84,NE,45,1.6,2.5,0,0.00,,,0.00,WUHU216HW,2013-06-27 05:56:00,
2013-06-27 02:01:00,60.7,0.0,29.83,NNW,338,0.7,2.5,0,0.00,,,0.00,WUHU216HW,2013-06-27 06:01:00,
2013-06-27 02:06:00,60.8,0.0,29.83,NNE,23,0.9,2.0,0,0.00,,,0.00,WUHU216HW,2013-06-27 06:06:00,
2013-06-27 02:11:00,60.8,0.0,29.83,ENE,68,0.9,1.8,0,0.00,,,0.00,WUHU216HW,2013-06-27 06:11:00,
2013-06-27 02:16:00,60.8,0.0,29.83,ENE,68,1.8,4.0,0,0.00,,,0.00,WUHU216HW,2013-06-27 06:16:00,
2013-06-27 02:21:00,60.7,0.0,29.83,SE,135,1.1,4.0,0,0.00,,,0.00,WUHU216HW,2013-06-27 06:21:00,
2013-06-27 02:26:00,60.7,0.0,29.83,SE,135,0.9,2.5,0,0.00,,,0.00,WUHU216HW,2013-06-27 06:26:00,
2013-06-27 02:31:00,60.7,0.0,29.82,ENE,68,2.0,2.5,0,0.00,,,0.00,WUHU216HW,2013-06-27 06:31:00,
2013-06-27 02:36:00,60.7,0.0,29.82,ESE,113,1.6,2.5,0,0.00,,,0.00,WUHU216HW,2013-06-27 06:36:00,
2013-06-27 02:41:00,60.5,0.0,29.82,ESE,113,0.9,2.5,0,0.00,,,0.00,WUHU216HW,2013-06-27 06:41:00,
2013-06-27 02:46:00,60.5,0.0,29.81,East,90,0.7,2.0,0,0.00,,,0.00,WUHU216HW,2013-06-27 06:46:00,
2013-06-27 02:51:00,60.5,0.0,29.82,ESE,113,0.4,1.8,0,0.00,,,0.00,WUHU216HW,2013-06-27 06:51:00,
2013-06-27 02:56:00,60.5,0.0,29.82,NE,45,2.5,2.5,0,0.00,,,0.00,WUHU216HW,2013-06-27 06:56:00,
2013-06-27 03:01:00,60.7,0.0,29.81,East,90,2.0,4.5,0,0.00,,,0.00,WUHU216HW,2013-06-27 07:01:00,
2013-06-27 03:06:00,60.7,0.0,29.81,ENE,68,2.5,4.5,0,0.00,,,0.00,WUHU216HW,2013-06-27 07:06:00,
2013-06-27 03:11:00,60.5,0.0,29.82,East,90,1.8,4.0,0,0.00,,,0.00,WUHU216HW,2013-06-27 07:11:00,
2013-06-27 03:16:00,60.5,0.0,29.82,NE,45,4.0,4.0,0,0.00,,,0.00,WUHU216HW,2013-06-27 07:16:00,
2013-06-27 03:21:00,60.5,0.0,29.82,North,0,4.9,4.9,0,0.00,,,0.00,WUHU216HW,2013-06-27 07:21:00,
2013-06-27 03:26:00,60.3,0.0,29.82,NE,45,5.4,5.4,0,0.00,,,0.00,WUHU216HW,2013-06-27 07:26:00,
2013-06-27 03:31:00,60.1,0.0,29.81,ENE,68,3.6,5.4,0,0.00,,,0.00,WUHU216HW,2013-06-27 07:31:00,
2013-06-27 03:36:00,60.1,0.0,29.82,NE,45,1.8,5.4,0,0.00,,,0.00,WUHU216HW,2013-06-27 07:36:00,
2013-06-27 03:41:00,60.1,0.0,29.82,ENE,68,1.1,4.7,0,0.00,,,0.00,WUHU216HW,2013-06-27 07:41:00,
2013-06-27 03:46:00,60.1,0.0,29.82,NE,45,3.1,3.6,0,0.00,,,0.00,WUHU216HW,2013-06-27 07:46:00,
2013-06-27 03:51:00,60.1,0.0,29.82,NNE,23,1.3,3.8,0,0.00,,,0.00,WUHU216HW,2013-06-27 07:51:00,
2013-06-27 03:56:00,59.9,0.0,29.81,NE,45,4.0,4.0,0,0.00,,,0.00,WUHU216HW,2013-06-27 07:56:00,
2013-06-27 04:01:00,59.9,0.0,29.81,NE,45,3.4,5.4,0,0.00,,,0.00,WUHU216HW,2013-06-27 08:01:00,
2013-06-27 04:06:00,59.8,0.0,29.81,NE,45,3.4,5.4,0,0.00,,,0.00,WUHU216HW,2013-06-27 08:06:00,
2013-06-27 04:11:00,59.8,0.0,29.81,ENE,68,3.4,4.0,0,0.00,,,0.00,WUHU216HW,2013-06-27 08:11:00,
2013-06-27 04:16:00,59.8,0.0,29.81,East,90,1.1,4.0,0,0.00,,,0.00,WUHU216HW,2013-06-27 08:16:00,
2013-06-27 04:21:00,59.8,0.0,29.81,East,90,2.0,4.5,0,0.00,,,0.00,WUHU216HW,2013-06-27 08:21:00,
2013-06-27 04:26:00,59.8,0.0,29.82,NNE,23,3.6,4.5,0,0.00,,,0.00,WUHU216HW,2013-06-27 08:26:00,
2013-06-27 04:31:00,59.6,0.0,29.81,ENE,68,6.0,8.3,0,0.00,,,0.00,WUHU216HW,2013-06-27 08:31:00,
2013-06-27 04:36:00,59.6,0.0,29.82,NE,45,2.5,8.3,0,0.01,,,0.01,WUHU216HW,2013-06-27 08:36:00,
2013-06-27 04:41:00,59.6,0.0,29.82,SSE,158,0.4,6.0,0,0.01,,,0.01,WUHU216HW,2013-06-27 08:41:00,
2013-06-27 04:46:00,59.6,0.0,29.82,NE,45,0.9,3.1,0,0.01,,,0.01,WUHU216HW,2013-06-27 08:46:00,
2013-06-27 04:51:00,59.4,0.0,29.82,NE,45,2.7,3.1,0,0.01,,,0.01,WUHU216HW,2013-06-27 08:51:00,
2013-06-27 04:56:00,59.6,0.0,29.82,ENE,68,2.2,5.4,0,0.01,,,0.01,WUHU216HW,2013-06-27 08:56:00,
2013-06-27 05:01:00,59.4,0.0,29.82,ENE,68,2.9,5.4,0,0.01,,,0.01,WUHU216HW,2013-06-27 09:01:00,
2013-06-27 05:06:00,59.4,0.0,29.82,ENE,68,1.8,4.0,0,0.01,,,0.01,WUHU216HW,2013-06-27 09:06:00,
2013-06-27 05:11:00,59.4,0.0,29.82,SE,135,0.2,3.4,0,0.01,,,0.01,WUHU216HW,2013-06-27 09:11:00,
2013-06-27 05:16:00,59.4,0.0,29.82,ESE,113,0.7,2.5,0,0.01,,,0.01,WUHU216HW,2013-06-27 09:16:00,
2013-06-27 05:21:00,59.2,0.0,29.83,North,0,1.6,1.8,0,0.01,,,0.01,WUHU216HW,2013-06-27 09:21:00,
2013-06-27 05:26:00,59.4,0.0,29.83,ENE,68,1.8,2.7,0,0.01,,,0.01,WUHU216HW,2013-06-27 09:26:00,
2013-06-27 05:31:00,59.4,0.0,29.82,NE,45,2.5,2.7,0,0.01,,,0.01,WUHU216HW,2013-06-27 09:31:00,
2013-06-27 05:36:00,59.4,0.0,29.82,NE,45,2.9,3.6,0,0.00,,,0.01,WUHU216HW,2013-06-27 09:36:00,
2013-06-27 05:41:00,59.4,0.0,29.83,SE,135,0.4,3.6,0,0.00,,,0.01,WUHU216HW,2013-06-27 09:41:00,
2013-06-27 05:46:00,59.4,0.0,29.83,SE,135,1.1,2.9,0,0.00,,,0.01,WUHU216HW,2013-06-27 09:46:00,
2013-06-27 05:51:00,59.4,0.0,29.83,ESE,113,0.4,1.6,0,0.00,,,0.01,WUHU216HW,2013-06-27 09:51:00,
2013-06-27 05:56:00,59.4,0.0,29.83,East,90,1.1,2.0,0,0.00,,,0.01,WUHU216HW,2013-06-27 09:56:00,
2013-06-27 06:01:00,59.2,0.0,29.83,NNE,23,4.0,4.0,0,0.00,,,0.01,WUHU216HW,2013-06-27 10:01:00,
2013-06-27 06:06:00,59.4,0.0,29.83,ESE,113,2.7,6.0,0,0.00,,,0.01,WUHU216HW,2013-06-27 10:06:00,
2013-06-27 06:11:00,59.2,0.0,29.83,SE,135,0.4,6.0,0,0.00,,,0.01,WUHU216HW,2013-06-27 10:11:00,
2013-06-27 06:16:00,59.4,0.0,29.83,ENE,68,4.9,4.9,0,0.00,,,0.01,WUHU216HW,2013-06-27 10:16:00,
2013-06-27 06:21:00,59.4,0.0,29.83,NE,45,1.8,4.9,0,0.00,,,0.01,WUHU216HW,2013-06-27 10:21:00,
2013-06-27 06:26:00,59.4,0.0,29.83,ENE,68,1.8,4.9,0,0.00,,,0.01,WUHU216HW,2013-06-27 10:26:00,
2013-06-27 06:31:00,59.4,0.0,29.83,NE,45,2.5,4.0,0,0.00,,,0.01,WUHU216HW,2013-06-27 10:31:00,
2013-06-27 06:36:00,59.4,0.0,29.83,ENE,68,1.8,4.0,0,0.00,,,0.01,WUHU216HW,2013-06-27 10:36:00,
2013-06-27 06:41:00,59.6,0.0,29.83,ENE,68,0.2,2.7,0,0.00,,,0.01,WUHU216HW,2013-06-27 10:41:00,
2013-06-27 06:46:00,59.6,0.0,29.83,NNE,23,0.0,3.4,0,0.00,,,0.01,WUHU216HW,2013-06-27 10:46:00,
2013-06-27 06:51:00,59.8,0.0,29.84,ESE,113,2.7,3.4,0,0.00,,,0.01,WUHU216HW,2013-06-27 10:51:00,
2013-06-27 06:56:00,59.8,0.0,29.85,SE,135,1.1,2.7,0,0.00,,,0.01,WUHU216HW,2013-06-27 10:56:00,
2013-06-27 07:01:00,59.8,0.0,29.85,SSE,158,1.1,2.7,0,0.00,,,0.01,WUHU216HW,2013-06-27 11:01:00,
2013-06-27 07:06:00,59.8,0.0,29.85,SE,135,1.3,2.5,0,0.00,,,0.01,WUHU216HW,2013-06-27 11:06:00,
2013-06-27 07:11:00,59.8,0.0,29.85,SSE,158,1.8,3.4,0,0.00,,,0.01,WUHU216HW,2013-06-27 11:11:00,
2013-06-27 07:16:00,59.8,0.0,29.85,SE,135,2.5,4.0,0,0.00,,,0.01,WUHU216HW,2013-06-27 11:16:00,
2013-06-27 07:21:00,59.8,0.0,29.85,ESE,113,3.4,4.0,0,0.00,,,0.01,WUHU216HW,2013-06-27 11:21:00,
2013-06-27 07:26:00,59.8,0.0,29.85,ESE,113,1.6,4.0,0,0.00,,,0.01,WUHU216HW,2013-06-27 11:26:00,
2013-06-27 07:31:00,59.8,0.0,29.85,ESE,113,0.9,4.0,0,0.00,,,0.01,WUHU216HW,2013-06-27 11:31:00,
2013-06-27 07:36:00,59.9,0.0,29.85,ESE,113,1.3,2.9,0,0.00,,,0.01,WUHU216HW,2013-06-27 11:36:00,
2013-06-27 07:41:00,60.1,0.0,29.85,SE,135,3.4,3.4,0,0.00,,,0.01,WUHU216HW,2013-06-27 11:41:00,
2013-06-27 07:46:00,60.1,0.0,29.85,SE,135,1.6,3.4,0,0.00,,,0.01,WUHU216HW,2013-06-27 11:46:00,
2013-06-27 07:51:00,60.1,0.0,29.85,East,90,2.5,3.4,0,0.00,,,0.01,WUHU216HW,2013-06-27 11:51:00,
2013-06-27 07:56:00,60.1,0.0,29.84,ESE,113,3.4,3.4,0,0.00,,,0.01,WUHU216HW,2013-06-27 11:56:00,
2013-06-27 08:01:00,60.1,0.0,29.84,ENE,68,1.1,3.4,0,0.00,,,0.01,WUHU216HW,2013-06-27 12:01:00,
2013-06-27 08:06:00,60.3,0.0,29.84,SSE,158,1.6,3.4,0,0.00,,,0.01,WUHU216HW,2013-06-27 12:06:00,
2013-06-27 08:11:00,60.5,0.0,29.84,SSE,158,1.8,2.9,0,0.00,,,0.01,WUHU216HW,2013-06-27 12:11:00,
2013-06-27 08:16:00,60.8,0.0,29.84,ESE,113,2.2,2.5,0,0.00,,,0.01,WUHU216HW,2013-06-27 12:16:00,
2013-06-27 08:21:00,60.8,0.0,29.84,SE,135,2.5,2.9,0,0.00,,,0.01,WUHU216HW,2013-06-27 12:21:00,
2013-06-27 08:26:00,60.8,0.0,29.84,ESE,113,0.4,3.1,0,0.00,,,0.01,WUHU216HW,2013-06-27 12:26:00,
2013-06-27 08:31:00,61.0,0.0,29.84,ESE,113,1.6,3.1,0,0.00,,,0.01,WUHU216HW,2013-06-27 12:31:00,
2013-06-27 08:35:00,61.2,0.0,29.84,SE,135,0.7,2.0,0,0.00,,,0.01,WUHU216HW,2013-06-27 12:35:00,
2013-06-27 08:40:00,61.4,0.0,29.83,ENE,68,1.3,2.0,0,0.00,,,0.01,WUHU216HW,2013-06-27 12:40:00,
2013-06-27 08:45:00,61.6,0.0,29.83,SSE,158,1.8,1.8,0,0.00,,,0.01,WUHU216HW,2013-06-27 12:45:00,
2013-06-27 08:50:00,61.7,0.0,29.83,ESE,113,1.3,2.7,0,0.00,,,0.01,WUHU216HW,2013-06-27 12:50:00,
2013-06-27 08:55:00,61.9,0.0,29.83,East,90,0.9,2.7,0,0.00,,,0.01,WUHU216HW,2013-06-27 12:55:00,
2013-06-27 09:00:00,62.1,0.0,29.84,East,90,0.9,1.8,0,0.00,,,0.01,WUHU216HW,2013-06-27 13:00:00,
2013-06-27 09:05:00,62.3,0.0,29.84,NE,45,0.2,1.6,0,0.00,,,0.01,WUHU216HW,2013-06-27 13:05:00,
2013-06-27 09:10:00,62.6,0.0,29.84,ENE,68,2.5,3.1,0,0.00,,,0.01,WUHU216HW,2013-06-27 13:10:00,
2013-06-27 09:15:00,62.6,0.0,29.84,NE,45,1.8,3.6,0,0.00,,,0.01,WUHU216HW,2013-06-27 13:15:00,
2013-06-27 09:20:00,63.0,0.0,29.83,ENE,68,0.9,3.6,0,0.00,,,0.01,WUHU216HW,2013-06-27 13:20:00,
2013-06-27 09:25:00,63.0,0.0,29.83,East,90,1.8,5.1,0,0.00,,,0.01,WUHU216HW,2013-06-27 13:25:00,
2013-06-27 09:30:00,63.0,0.0,29.83,NE,45,1.8,5.1,0,0.00,,,0.01,WUHU216HW,2013-06-27 13:30:00,
2013-06-27 09:35:00,63.0,0.0,29.83,North,0,0.4,4.7,0,0.00,,,0.01,WUHU216HW,2013-06-27 13:35:00,
2013-06-27 09:40:00,63.0,0.0,29.83,ENE,68,1.8,3.4,0,0.00,,,0.01,WUHU216HW,2013-06-27 13:40:00,
2013-06-27 09:45:00,63.4,0.0,29.82,ENE,68,2.7,4.3,0,0.00,,,0.01,WUHU216HW,2013-06-27 13:45:00,
2013-06-27 09:50:00,63.5,0.0,29.82,SSE,158,1.6,4.7,0,0.00,,,0.01,WUHU216HW,2013-06-27 13:50:00,
2013-06-27 09:55:00,63.7,0.0,29.83,SE,135,2.0,4.7,0,0.00,,,0.01,WUHU216HW,2013-06-27 13:55:00,
2013-06-27 10:00:00,64.1,0.0,29.83,NE,45,2.5,2.9,0,0.00,,,0.01,WUHU216HW,2013-06-27 14:00:00,
2013-06-27 10:05:00,64.1,0.0,29.82,ENE,68,2.2,3.6,0,0.00,,,0.01,WUHU216HW,2013-06-27 14:05:00,
2013-06-27 10:10:00,64.1,0.0,29.83,East,90,1.1,3.6,0,0.00,,,0.01,WUHU216HW,2013-06-27 14:10:00,
2013-06-27 10:15:00,64.4,0.0,29.83,ESE,113,1.3,2.5,0,0.00,,,0.01,WUHU216HW,2013-06-27 14:15:00,
2013-06-27 10:20:00,64.4,0.0,29.82,South,180,1.1,2.5,0,0.00,,,0.01,WUHU216HW,2013-06-27 14:20:00,
2013-06-27 10:25:00,64.6,0.0,29.83,ESE,113,4.0,5.4,0,0.00,,,0.01,WUHU216HW,2013-06-27 14:25:00,
2013-06-27 10:30:00,64.8,0.0,29.83,SE,135,1.3,5.4,0,0.00,,,0.01,WUHU216HW,2013-06-27 14:30:00,
2013-06-27 10:35:00,64.8,0.0,29.82,NNE,23,1.3,4.0,0,0.00,,,0.01,WUHU216HW,2013-06-27 14:35:00,
2013-06-27 10:40:00,65.0,0.0,29.83,ESE,113,2.7,2.7,0,0.00,,,0.01,WUHU216HW,2013-06-27 14:40:00,
2013-06-27 10:45:00,65.2,0.0,29.83,SE,135,1.1,2.7,0,0.00,,,0.01,WUHU216HW,2013-06-27 14:45:00,
2013-06-27 10:50:00,65.5,0.0,29.82,ESE,113,2.9,2.9,0,0.00,,,0.01,WUHU216HW,2013-06-27 14:50:00,
2013-06-27 10:55:00,65.7,0.0,29.82,SE,135,1.1,2.9,0,0.00,,,0.01,WUHU216HW,2013-06-27 14:55:00,
2013-06-27 11:00:00,66.1,0.0,29.83,SSE,158,1.3,2.9,0,0.00,,,0.01,WUHU216HW,2013-06-27 15:00:00,
2013-06-27 11:05:00,66.2,0.0,29.83,East,90,3.6,3.6,0,0.00,,,0.01,WUHU216HW,2013-06-27 15:05:00,
2013-06-27 11:10:00,66.2,0.0,29.82,East,90,0.7,3.6,0,0.00,,,0.01,WUHU216HW,2013-06-27 15:10:00,
2013-06-27 11:15:00,66.2,0.0,29.82,ESE,113,1.1,3.6,0,0.00,,,0.01,WUHU216HW,2013-06-27 15:15:00,
2013-06-27 11:20:00,66.6,0.0,29.82,SE,135,1.1,2.0,0,0.00,,,0.01,WUHU216HW,2013-06-27 15:20:00,
2013-06-27 11:25:00,67.0,0.0,29.82,SSE,158,2.9,4.5,0,0.00,,,0.01,WUHU216HW,2013-06-27 15:25:00,
2013-06-27 11:30:00,67.5,0.0,29.82,NE,45,0.9,4.5,0,0.00,,,0.01,WUHU216HW,2013-06-27 15:30:00,
2013-06-27 11:35:00,67.5,0.0,29.82,ESE,113,1.8,3.6,0,0.00,,,0.01,WUHU216HW,2013-06-27 15:35:00,
2013-06-27 11:40:00,67.7,0.0,29.82,ENE,68,1.8,2.5,0,0.00,,,0.01,WUHU216HW,2013-06-27 15:40:00,
2013-06-27 11:45:00,68.2,0.0,29.82,ESE,113,5.4,5.4,0,0.00,,,0.01,WUHU216HW,2013-06-27 15:45:00,
2013-06-27 11:50:00,68.8,0.0,29.82,SE,135,4.0,5.4,0,0.00,,,0.01,WUHU216HW,2013-06-27 15:50:00,
2013-06-27 11:55:00,69.1,0.0,29.82,SE,135,1.6,4.7,0,0.00,,,0.01,WUHU216HW,2013-06-27 15:55:00,
2013-06-27 12:00:00,69.1,0.0,29.82,NE,45,1.8,4.0,0,0.00,,,0.01,WUHU216HW,2013-06-27 16:00:00,
2013-06-27 12:05:00,69.1,0.0,29.82,SE,135,2.2,3.4,0,0.00,,,0.01,WUHU216HW,2013-06-27 16:05:00,
2013-06-27 12:10:00,68.9,0.0,29.82,East,90,2.0,3.4,0,0.00,,,0.01,WUHU216HW,2013-06-27 16:10:00,
2013-06-27 12:15:00,68.9,0.0,29.82,SSW,203,1.1,3.1,0,0.00,,,0.01,WUHU216HW,2013-06-27 16:15:00,
2013-06-27 12:20:00,69.1,0.0,29.82,SSW,203,0.2,2.0,0,0.00,,,0.01,WUHU216HW,2013-06-27 16:20:00,
2013-06-27 12:25:00,68.9,0.0,29.82,NE,45,3.1,3.1,0,0.00,,,0.01,WUHU216HW,2013-06-27 16:25:00,
2013-06-27 12:30:00,68.9,0.0,29.82,ESE,113,1.6,3.1,0,0.00,,,0.01,WUHU216HW,2013-06-27 16:30:00,
2013-06-27 12:35:00,68.8,0.0,29.82,NNE,23,3.6,4.0,0,0.00,,,0.01,WUHU216HW,2013-06-27 16:35:00,
2013-06-27 12:40:00,68.8,0.0,29.82,North,0,1.6,4.0,0,0.00,,,0.01,WUHU216HW,2013-06-27 16:40:00,
2013-06-27 12:45:00,68.8,0.0,29.82,NE,45,0.9,3.6,0,0.00,,,0.01,WUHU216HW,2013-06-27 16:45:00,
2013-06-27 12:50:00,69.1,0.0,29.81,ENE,68,1.1,2.9,0,0.00,,,0.01,WUHU216HW,2013-06-27 16:50:00,
2013-06-27 12:55:00,69.3,0.0,29.81,East,90,0.4,2.5,0,0.00,,,0.01,WUHU216HW,2013-06-27 16:55:00,
2013-06-27 13:00:00,70.2,0.0,29.81,NE,45,1.3,2.5,0,0.00,,,0.01,WUHU216HW,2013-06-27 17:00:00,
2013-06-27 13:05:00,70.2,0.0,29.81,North,0,1.1,3.1,0,0.00,,,0.01,WUHU216HW,2013-06-27 17:05:00,
2013-06-27 13:10:00,70.2,0.0,29.81,ENE,68,1.3,3.1,0,0.00,,,0.01,WUHU216HW,2013-06-27 17:10:00,
2013-06-27 13:15:00,70.2,0.0,29.80,NNE,23,2.0,3.8,0,0.00,,,0.01,WUHU216HW,2013-06-27 17:15:00,
2013-06-27 13:20:00,69.8,0.0,29.80,NE,45,4.5,6.5,0,0.00,,,0.01,WUHU216HW,2013-06-27 17:20:00,
2013-06-27 13:25:00,69.8,0.0,29.80,NE,45,3.1,6.5,0,0.00,,,0.01,WUHU216HW,2013-06-27 17:25:00,
2013-06-27 13:30:00,69.8,0.0,29.80,NNE,23,1.1,4.5,0,0.00,,,0.01,WUHU216HW,2013-06-27 17:30:00,
2013-06-27 13:35:00,69.8,0.0,29.80,East,90,1.6,4.7,0,0.00,,,0.01,WUHU216HW,2013-06-27 17:35:00,
2013-06-27 13:40:00,69.8,0.0,29.80,East,90,4.0,6.3,0,0.00,,,0.01,WUHU216HW,2013-06-27 17:40:00,
2013-06-27 13:45:00,70.2,0.0,29.79,ENE,68,3.6,6.3,0,0.00,,,0.01,WUHU216HW,2013-06-27 17:45:00,
2013-06-27 13:50:00,70.4,0.0,29.79,NE,45,2.0,6.3,0,0.00,,,0.01,WUHU216HW,2013-06-27 17:50:00,
2013-06-27 13:55:00,70.7,0.0,29.79,ESE,113,1.8,5.4,0,0.00,,,0.01,WUHU216HW,2013-06-27 17:55:00,
2013-06-27 14:00:00,70.7,0.0,29.79,ESE,113,1.1,5.6,0,0.00,,,0.01,WUHU216HW,2013-06-27 18:00:00,
2013-06-27 14:05:00,71.1,0.0,29.80,SSW,203,1.8,5.6,0,0.00,,,0.01,WUHU216HW,2013-06-27 18:05:00,
2013-06-27 14:10:00,71.1,0.0,29.79,ENE,68,2.9,4.9,0,0.00,,,0.01,WUHU216HW,2013-06-27 18:10:00,
2013-06-27 14:15:00,70.9,0.0,29.79,SSE,158,2.2,4.9,0,0.00,,,0.01,WUHU216HW,2013-06-27 18:15:00,
2013-06-27 14:20:00,70.9,0.0,29.80,NE,45,2.0,4.3,0,0.00,,,0.01,WUHU216HW,2013-06-27 18:20:00,
2013-06-27 14:25:00,70.9,0.0,29.80,East,90,1.8,4.7,0,0.00,,,0.01,WUHU216HW,2013-06-27 18:25:00,
2013-06-27 14:30:00,70.9,0.0,29.80,SE,135,2.5,4.7,0,0.00,,,0.01,WUHU216HW,2013-06-27 18:30:00,
2013-06-27 14:35:00,71.3,0.0,29.80,SSE,158,0.4,4.5,0,0.00,,,0.01,WUHU216HW,2013-06-27 18:35:00,
2013-06-27 14:40:00,71.5,0.0,29.80,SE,135,1.8,4.5,0,0.00,,,0.01,WUHU216HW,2013-06-27 18:40:00,
2013-06-27 14:45:00,71.6,0.0,29.80,SE,135,3.6,5.4,0,0.00,,,0.01,WUHU216HW,2013-06-27 18:45:00,
2013-06-27 14:50:00,72.0,0.0,29.80,ESE,113,2.2,5.4,0,0.00,,,0.01,WUHU216HW,2013-06-27 18:50:00,
2013-06-27 14:55:00,72.0,0.0,29.79,ESE,113,2.2,3.8,0,0.00,,,0.01,WUHU216HW,2013-06-27 18:55:00,
2013-06-27 15:00:00,72.0,0.0,29.79,East,90,1.3,3.8,0,0.00,,,0.01,WUHU216HW,2013-06-27 19:00:00,
2013-06-27 15:05:00,71.8,0.0,29.79,East,90,0.4,2.2,0,0.00,,,0.01,WUHU216HW,2013-06-27 19:05:00,
2013-06-27 15:10:00,71.5,0.0,29.79,SSE,158,1.6,3.1,0,0.00,,,0.01,WUHU216HW,2013-06-27 19:10:00,
2013-06-27 15:15:00,71.3,0.0,29.79,ENE,68,1.1,3.1,0,0.00,,,0.01,WUHU216HW,2013-06-27 19:15:00,
2013-06-27 15:20:00,71.3,0.0,29.79,NE,45,1.1,2.0,0,0.00,,,0.01,WUHU216HW,2013-06-27 19:20:00,
2013-06-27 15:25:00,71.3,0.0,29.79,ESE,113,1.8,2.0,0,0.00,,,0.01,WUHU216HW,2013-06-27 19:25:00,
2013-06-27 15:30:00,71.1,0.0,29.79,ESE,113,2.9,2.9,0,0.00,,,0.01,WUHU216HW,2013-06-27 19:30:00,
2013-06-27 15:35:00,71.1,0.0,29.79,SE,135,2.0,4.7,0,0.00,,,0.01,WUHU216HW,2013-06-27 19:35:00,
2013-06-27 15:40:00,70.7,0.0,29.79,East,90,2.2,4.7,0,0.00,,,0.01,WUHU216HW,2013-06-27 19:40:00,
2013-06-27 15:45:00,70.6,0.0,29.79,East,90,1.6,3.6,0,0.00,,,0.01,WUHU216HW,2013-06-27 19:45:00,
2013-06-27 15:50:00,70.6,0.0,29.78,SE,135,3.4,3.6,0,0.00,,,0.01,WUHU216HW,2013-06-27 19:50:00,
2013-06-27 15:55:00,70.6,0.0,29.78,SE,135,3.1,4.0,0,0.00,,,0.01,WUHU216HW,2013-06-27 19:55:00,
2013-06-27 16:00:00,70.7,0.0,29.78,NE,45,1.1,4.0,0,0.00,,,0.01,WUHU216HW,2013-06-27 20:00:00,
2013-06-27 16:05:00,70.6,0.0,29.79,East,90,2.7,3.4,0,0.00,,,0.01,WUHU216HW,2013-06-27 20:05:00,
2013-06-27 16:10:00,70.0,0.0,29.78,ESE,113,3.4,4.7,0,0.00,,,0.01,WUHU216HW,2013-06-27 20:10:00,
2013-06-27 16:15:00,69.7,0.0,29.78,North,0,1.3,4.7,0,0.00,,,0.01,WUHU216HW,2013-06-27 20:15:00,
2013-06-27 16:20:00,69.3,0.0,29.78,ESE,113,1.8,3.4,0,0.00,,,0.01,WUHU216HW,2013-06-27 20:20:00,
2013-06-27 16:25:00,68.8,0.0,29.78,ESE,113,1.8,4.0,0,0.00,,,0.01,WUHU216HW,2013-06-27 20:25:00,
2013-06-27 16:30:00,68.4,0.0,29.78,ENE,68,2.0,4.0,0,0.00,,,0.01,WUHU216HW,2013-06-27 20:30:00,
2013-06-27 16:35:00,68.0,0.0,29.78,SE,135,2.5,4.9,0,0.01,,,0.02,WUHU216HW,2013-06-27 20:35:00,
2013-06-27 16:40:00,67.9,0.0,29.78,ESE,113,2.5,4.9,0,0.01,,,0.02,WUHU216HW,2013-06-27 20:40:00,
2013-06-27 16:45:00,67.3,0.0,29.78,ESE,113,4.5,5.4,0,0.01,,,0.02,WUHU216HW,2013-06-27 20:45:00,
2013-06-27 16:50:00,67.1,0.0,29.77,SE,135,3.4,5.4,0,0.02,,,0.03,WUHU216HW,2013-06-27 20:50:00,
2013-06-27 16:55:00,67.0,0.0,29.77,ESE,113,4.3,4.7,0,0.02,,,0.03,WUHU216HW,2013-06-27 20:55:00,
2013-06-27 17:00:00,67.1,0.0,29.78,SE,135,3.4,4.7,0,0.02,,,0.03,WUHU216HW,2013-06-27 21:00:00,
2013-06-27 17:05:00,67.1,0.0,29.77,South,180,3.4,6.0,0,0.02,,,0.03,WUHU216HW,2013-06-27 21:05:00,
2013-06-27 17:10:00,67.0,0.0,29.78,East,90,1.1,6.0,0,0.03,,,0.04,WUHU216HW,2013-06-27 21:10:00,
2013-06-27 17:15:00,67.1,0.0,29.78,East,90,2.9,5.6,0,0.04,,,0.05,WUHU216HW,2013-06-27 21:15:00,
2013-06-27 17:20:00,67.1,0.0,29.77,SE,135,2.7,4.5,0,0.04,,,0.05,WUHU216HW,2013-06-27 21:20:00,
2013-06-27 17:25:00,66.8,0.0,29.78,East,90,3.1,4.3,0,0.04,,,0.05,WUHU216HW,2013-06-27 21:25:00,
2013-06-27 17:30:00,66.6,0.0,29.77,NE,45,2.9,5.4,0,0.04,,,0.05,WUHU216HW,2013-06-27 21:30:00,
2013-06-27 17:35:00,66.1,0.0,29.77,SSE,158,3.1,5.4,0,0.03,,,0.05,WUHU216HW,2013-06-27 21:35:00,
2013-06-27 17:41:00,65.9,0.0,29.77,NE,45,2.2,4.7,0,0.03,,,0.05,WUHU216HW,2013-06-27 21:41:00,
2013-06-27 17:46:00,65.5,0.0,29.77,ESE,113,2.0,4.3,0,0.02,,,0.05,WUHU216HW,2013-06-27 21:46:00,
2013-06-27 17:51:00,65.2,0.0,29.77,ESE,113,2.0,4.3,0,0.02,,,0.05,WUHU216HW,2013-06-27 21:51:00,
2013-06-27 17:56:00,64.8,0.0,29.77,SE,135,4.0,4.0,0,0.02,,,0.05,WUHU216HW,2013-06-27 21:56:00,
2013-06-27 18:01:00,64.6,0.0,29.77,SSE,158,3.6,4.0,0,0.02,,,0.05,WUHU216HW,2013-06-27 22:01:00,
2013-06-27 18:06:00,64.4,0.0,29.77,East,90,1.8,4.0,0,0.01,,,0.05,WUHU216HW,2013-06-27 22:06:00,
2013-06-27 18:11:00,64.1,0.0,29.77,East,90,1.8,4.3,0,0.01,,,0.05,WUHU216HW,2013-06-27 22:11:00,
2013-06-27 18:16:00,64.1,0.0,29.77,NE,45,2.2,4.3,0,0.00,,,0.05,WUHU216HW,2013-06-27 22:16:00,
2013-06-27 18:21:00,63.7,0.0,29.77,SE,135,2.9,3.4,0,0.00,,,0.05,WUHU216HW,2013-06-27 22:21:00,
2013-06-27 18:26:00,63.7,0.0,29.77,East,90,2.2,4.0,0,0.01,,,0.06,WUHU216HW,2013-06-27 22:26:00,
2013-06-27 18:31:00,63.5,0.0,29.78,East,90,0.9,4.0,0,0.01,,,0.06,WUHU216HW,2013-06-27 22:31:00,
2013-06-27 18:36:00,63.4,0.0,29.78,SE,135,2.0,2.9,0,0.01,,,0.06,WUHU216HW,2013-06-27 22:36:00,
2013-06-27 18:41:00,63.2,0.0,29.78,East,90,0.4,2.5,0,0.01,,,0.06,WUHU216HW,2013-06-27 22:41:00,
2013-06-27 18:46:00,63.2,0.0,29.77,ENE,68,1.1,3.6,0,0.01,,,0.06,WUHU216HW,2013-06-27 22:46:00,
2013-06-27 18:51:00,63.0,0.0,29.78,ESE,113,1.6,3.6,0,0.02,,,0.07,WUHU216HW,2013-06-27 22:51:00,
2013-06-27 18:56:00,63.0,0.0,29.78,East,90,0.9,2.2,0,0.05,,,0.10,WUHU216HW,2013-06-27 22:56:00,
2013-06-27 19:01:00,62.8,0.0,29.78,SSE,158,2.5,2.5,0,0.09,,,0.14,WUHU216HW,2013-06-27 23:01:00,
2013-06-27 19:06:00,62.6,0.0,29.78,SE,135,1.6,2.5,0,0.12,,,0.18,WUHU216HW,2013-06-27 23:06:00,
2013-06-27 19:11:00,62.6,0.0,29.78,SSE,158,0.7,2.2,0,0.17,,,0.23,WUHU216HW,2013-06-27 23:11:00,
2013-06-27 19:16:00,62.5,0.0,29.78,SE,135,1.6,2.9,0,0.20,,,0.25,WUHU216HW,2013-06-27 23:16:00,
2013-06-27 19:21:00,62.5,0.0,29.77,ESE,113,0.7,2.9,0,0.24,,,0.31,WUHU216HW,2013-06-27 23:21:00,
2013-06-27 19:26:00,62.5,0.0,29.78,East,90,0.7,2.5,0,0.26,,,0.32,WUHU216HW,2013-06-27 23:26:00,
2013-06-27 19:31:00,62.5,0.0,29.77,ESE,113,0.9,2.9,0,0.28,,,0.34,WUHU216HW,2013-06-27 23:31:00,
2013-06-27 19:36:00,62.3,0.0,29.77,SE,135,0.7,2.9,0,0.28,,,0.34,WUHU216HW,2013-06-27 23:36:00,
2013-06-27 19:41:00,62.3,0.0,29.77,ESE,113,2.2,2.7,0,0.28,,,0.35,WUHU216HW,2013-06-27 23:41:00,
2013-06-27 19:46:00,62.3,0.0,29.77,ESE,113,1.3,2.7,0,0.30,,,0.36,WUHU216HW,2013-06-27 23:46:00,
2013-06-27 19:51:00,62.1,0.0,29.77,ESE,113,2.9,2.9,0,0.30,,,0.37,WUHU216HW,2013-06-27 23:51:00,
2013-06-27 19:56:00,62.1,0.0,29.77,East,90,0.7,3.1,0,0.26,,,0.39,WUHU216HW,2013-06-27 23:56:00,
2013-06-27 20:01:00,62.1,0.0,29.77,ENE,68,0.4,3.1,0,0.24,,,0.40,WUHU216HW,2013-06-28 00:01:00,
2013-06-27 20:06:00,62.1,0.0,29.77,ESE,113,1.8,3.1,0,0.21,,,0.42,WUHU216HW,2013-06-28 00:06:00,
2013-06-27 20:11:00,61.9,0.0,29.77,NE,45,2.0,3.1,0,0.18,,,0.42,WUHU216HW,2013-06-28 00:11:00,
2013-06-27 20:16:00,61.9,0.0,29.77,East,90,1.1,2.7,0,0.13,,,0.43,WUHU216HW,2013-06-28 00:16:00,
2013-06-27 20:22:00,61.9,0.0,29.77,ENE,68,1.8,2.5,0,0.11,,,0.43,WUHU216HW,2013-06-28 00:22:00,
2013-06-27 20:27:00,61.9,0.0,29.77,SW,225,0.9,2.5,0,0.09,,,0.43,WUHU216HW,2013-06-28 00:27:00,
2013-06-27 20:32:00,61.9,0.0,29.77,ESE,113,0.9,2.5,0,0.09,,,0.43,WUHU216HW,2013-06-28 00:32:00,
2013-06-27 20:37:00,61.9,0.0,29.77,ESE,113,0.7,2.5,0,0.08,,,0.43,WUHU216HW,2013-06-28 00:37:00,
2013-06-27 20:42:00,61.9,0.0,29.78,ENE,68,2.0,3.4,0,0.08,,,0.43,WUHU216HW,2013-06-28 00:42:00,
2013-06-27 20:47:00,61.9,0.0,29.78,SW,225,2.0,4.0,0,0.07,,,0.43,WUHU216HW,2013-06-28 00:47:00,
2013-06-27 20:52:00,61.9,0.0,29.78,ENE,68,4.0,4.9,0,0.05,,,0.43,WUHU216HW,2013-06-28 00:52:00,
2013-06-27 20:57:00,61.9,0.0,29.77,ENE,68,2.2,5.4,0,0.03,,,0.43,WUHU216HW,2013-06-28 00:57:00,
2013-06-27 21:02:00,61.7,0.0,29.78,East,90,4.0,7.2,0,0.02,,,0.43,WUHU216HW,2013-06-28 01:02:00,
2013-06-27 21:07:00,61.9,0.0,29.78,East,90,4.0,7.2,0,0.01,,,0.43,WUHU216HW,2013-06-28 01:07:00,
2013-06-27 21:12:00,61.7,0.0,29.78,NE,45,5.6,5.6,0,0.01,,,0.43,WUHU216HW,2013-06-28 01:12:00,
2013-06-27 21:17:00,61.7,0.0,29.78,ENE,68,1.1,5.6,0,0.00,,,0.43,WUHU216HW,2013-06-28 01:17:00,
2013-06-27 21:22:00,61.7,0.0,29.78,NE,45,4.0,4.7,0,0.00,,,0.43,WUHU216HW,2013-06-28 01:22:00,
2013-06-27 21:27:00,61.7,0.0,29.78,South,180,1.8,4.7,0,0.00,,,0.43,WUHU216HW,2013-06-28 01:27:00,
2013-06-27 21:33:00,61.7,0.0,29.79,ENE,68,1.8,4.5,0,0.00,,,0.43,WUHU216HW,2013-06-28 01:33:00,
2013-06-27 21:38:00,61.7,0.0,29.79,NE,45,3.4,5.8,0,0.00,,,0.43,WUHU216HW,2013-06-28 01:38:00,
2013-06-27 21:43:00,61.7,0.0,29.78,ENE,68,0.7,5.8,0,0.00,,,0.43,WUHU216HW,2013-06-28 01:43:00,
2013-06-27 21:48:00,61.7,0.0,29.78,NE,45,4.0,4.5,0,0.00,,,0.43,WUHU216HW,2013-06-28 01:48:00,
2013-06-27 21:53:00,61.9,0.0,29.79,NNE,23,4.3,5.8,0,0.00,,,0.43,WUHU216HW,2013-06-28 01:53:00,
2013-06-27 21:58:00,61.9,0.0,29.79,ENE,68,1.1,5.8,0,0.00,,,0.43,WUHU216HW,2013-06-28 01:58:00,
2013-06-27 22:03:00,61.7,0.0,29.78,NNW,338,2.9,8.5,0,0.00,,,0.43,WUHU216HW,2013-06-28 02:03:00,
2013-06-27 22:08:00,61.7,0.0,29.78,NE,45,2.0,8.5,0,0.00,,,0.43,WUHU216HW,2013-06-28 02:08:00,
2013-06-27 22:13:00,61.7,0.0,29.78,NE,45,4.7,6.9,0,0.00,,,0.43,WUHU216HW,2013-06-28 02:13:00,
2013-06-27 22:18:00,61.6,0.0,29.78,ENE,68,1.1,9.6,0,0.00,,,0.43,WUHU216HW,2013-06-28 02:18:00,
2013-06-27 22:23:00,61.6,0.0,29.78,ENE,68,5.1,9.6,0,0.00,,,0.43,WUHU216HW,2013-06-28 02:23:00,
2013-06-27 22:28:00,61.6,0.0,29.77,NNE,23,2.5,7.6,0,0.00,,,0.43,WUHU216HW,2013-06-28 02:28:00,
2013-06-27 22:33:00,61.6,0.0,29.77,ENE,68,4.7,7.6,0,0.00,,,0.43,WUHU216HW,2013-06-28 02:33:00,
2013-06-27 22:39:00,61.6,0.0,29.77,NE,45,6.5,6.9,0,0.00,,,0.43,WUHU216HW,2013-06-28 02:39:00,
2013-06-27 22:44:00,61.4,0.0,29.77,ESE,113,3.6,6.5,0,0.00,,,0.43,WUHU216HW,2013-06-28 02:44:00,
2013-06-27 22:49:00,61.4,0.0,29.77,NNE,23,2.7,6.7,0,0.00,,,0.43,WUHU216HW,2013-06-28 02:49:00,
2013-06-27 22:54:00,61.2,0.0,29.77,SSE,158,4.3,6.7,0,0.00,,,0.43,WUHU216HW,2013-06-28 02:54:00,
2013-06-27 22:59:00,61.2,0.0,29.77,NNE,23,3.4,7.2,0,0.00,,,0.43,WUHU216HW,2013-06-28 02:59:00,
2013-06-27 23:04:00,61.0,0.0,29.77,NNE,23,3.4,7.6,0,0.00,,,0.43,WUHU216HW,2013-06-28 03:04:00,
2013-06-27 23:09:00,61.0,0.0,29.77,NE,45,2.5,8.7,0,0.00,,,0.43,WUHU216HW,2013-06-28 03:09:00,
2013-06-27 23:14:00,61.0,0.0,29.77,ESE,113,4.9,8.7,0,0.00,,,0.43,WUHU216HW,2013-06-28 03:14:00,
2013-06-27 23:19:00,60.8,0.0,29.77,NE,45,6.0,8.1,0,0.00,,,0.43,WUHU216HW,2013-06-28 03:19:00,
2013-06-27 23:24:00,60.8,0.0,29.76,NE,45,5.4,8.1,0,0.00,,,0.43,WUHU216HW,2013-06-28 03:24:00,
2013-06-27 23:29:00,60.7,0.0,29.76,East,90,1.8,7.6,0,0.00,,,0.43,WUHU216HW,2013-06-28 03:29:00,
2013-06-27 23:34:00,60.7,0.0,29.76,NE,45,2.9,7.4,0,0.00,,,0.43,WUHU216HW,2013-06-28 03:34:00,
2013-06-27 23:39:00,60.7,0.0,29.76,NE,45,8.1,9.2,0,0.00,,,0.43,WUHU216HW,2013-06-28 03:39:00,
2013-06-27 23:44:00,60.5,0.0,29.76,NNE,23,4.0,11.9,0,0.00,,,0.43,WUHU216HW,2013-06-28 03:44:00,
2013-06-27 23:49:00,60.5,0.0,29.75,ESE,113,3.6,11.9,0,0.00,,,0.43,WUHU216HW,2013-06-28 03:49:00,
2013-06-27 23:54:00,60.3,0.0,29.76,NE,45,4.3,8.9,0,0.01,,,0.44,WUHU216HW,2013-06-28 03:54:00,
2013-06-27 23:59:00,60.3,0.0,29.76,ENE,68,2.5,9.6,0,0.01,,,0.44,WUHU216HW,2013-06-28 03:59:00,